| time (UTC) | temp C | wind direction | speed KPH | gust KPH | rain 1hr cm | rain 24hr cm | rain mn cm | humidity % | barometer mb |
| 20260504023245 | 10 | 150 | 8.0 | 12.9 | 0.00 | 0.00 | 0.00 | 66 | 1010.2 |
| 20260504022741 | 10 | 157 | 8.0 | 12.9 | 0.00 | 0.00 | 0.00 | 66 | 1010.3 |
| 20260504022238 | 10 | 132 | 8.0 | 16.1 | 0.00 | 0.00 | 0.00 | 67 | 1010.2 |
| 20260504021735 | 10 | 149 | 8.0 | 11.3 | 0.00 | 0.00 | 0.00 | 68 | 1010.1 |
| 20260504021232 | 10 | 145 | 9.7 | 9.7 | 0.00 | 0.00 | 0.00 | 67 | 1010.2 |
| 20260504020729 | 10 | 142 | 11.3 | 11.3 | 0.00 | 0.00 | 0.00 | 67 | 1010.1 |
| 20260504020225 | 10 | 140 | 4.8 | 9.7 | 0.00 | 0.00 | 0.00 | 67 | 1010.0 |
| 20260504015722 | 10 | 149 | 6.4 | 9.7 | 0.00 | 0.00 | 0.00 | 67 | 1010.1 |
| 20260504015218 | 10 | 152 | 14.5 | 16.1 | 0.00 | 0.00 | 0.00 | 67 | 1010.2 |
| 20260504014714 | 10 | 155 | 8.0 | 9.7 | 0.00 | 0.00 | 0.00 | 67 | 1010.3 |
| 20260504014211 | 10 | 160 | 6.4 | 8.0 | 0.00 | 0.00 | 0.00 | 67 | 1010.4 |
| 20260504013709 | 10 | 192 | 6.4 | 8.0 | 0.00 | 0.00 | 0.00 | 67 | 1010.4 |
| 20260504013206 | 10 | 176 | 3.2 | 6.4 | 0.00 | 0.00 | 0.00 | 68 | 1010.3 |
| 20260504012702 | 10 | 163 | 4.8 | 4.8 | 0.00 | 0.00 | 0.00 | 67 | 1010.2 |
| 20260504012200 | 10 | 160 | 9.7 | 11.3 | 0.00 | 0.00 | 0.00 | 67 | 1010.2 |
| 20260504011657 | 10 | 181 | 4.8 | 9.7 | 0.00 | 0.00 | 0.00 | 67 | 1010.3 |
| 20260504011153 | 10 | 153 | 6.4 | 9.7 | 0.00 | 0.00 | 0.00 | 67 | 1010.1 |
| 20260504010649 | 10 | 163 | 9.7 | 9.7 | 0.00 | 0.00 | 0.00 | 66 | 1010.1 |
| 20260504010145 | 10 | 169 | 6.4 | 12.9 | 0.00 | 0.00 | 0.00 | 67 | 1010.1 |
| 20260504005643 | 10 | 149 | 8.0 | 11.3 | 0.00 | 0.00 | 0.00 | 66 | 1010.1 |
| 20260504005139 | 10 | 154 | 6.4 | 9.7 | 0.00 | 0.00 | 0.00 | 66 | 1010.1 |
| 20260504004637 | 10 | 165 | 8.0 | 9.7 | 0.00 | 0.00 | 0.00 | 65 | 1010.1 |
| 20260504004134 | 10 | 160 | 6.4 | 9.7 | 0.00 | 0.00 | 0.00 | 64 | 1010.2 |
| 20260504003630 | 10 | 162 | 4.8 | 9.7 | 0.00 | 0.00 | 0.00 | 64 | 1010.0 |
| 20260504003127 | 10 | 159 | 4.8 | 6.4 | 0.00 | 0.00 | 0.00 | 63 | 1010.0 |
| 20260504002624 | 10 | 153 | 6.4 | 6.4 | 0.00 | 0.00 | 0.00 | 62 | 1009.9 |
| 20260504002121 | 10 | 133 | 6.4 | 9.7 | 0.00 | 0.00 | 0.00 | 62 | 1009.9 |
| 20260504001619 | 10 | 157 | 6.4 | 8.0 | 0.00 | 0.00 | 0.00 | 63 | 1010.0 |
| 20260504001115 | 10 | 144 | 3.2 | 6.4 | 0.00 | 0.00 | 0.00 | 62 | 1010.2 |
| 20260504000613 | 10 | 143 | 3.2 | 6.4 | 0.00 | 0.00 | 0.00 | 62 | 1010.4 |
| 20260504000110 | 10 | 158 | 6.4 | 8.0 | 0.00 | 0.00 | 0.00 | 61 | 1010.5 |
| 20260503235608 | 10 | 158 | 8.0 | 8.0 | 0.00 | 0.00 | 0.00 | 61 | 1010.6 |
| 20260503235104 | 10 | 165 | 4.8 | 9.7 | 0.00 | 0.00 | 0.00 | 60 | 1011.0 |
| 20260503234602 | 10 | 191 | 12.9 | 16.1 | 0.00 | 0.00 | 0.00 | 61 | 1011.0 |
| 20260503234100 | 11 | 221 | 9.7 | 20.9 | 0.00 | 0.00 | 0.00 | 60 | 1011.0 |
| 20260503233556 | 11 | 190 | 6.4 | 25.7 | 0.00 | 0.00 | 0.00 | 60 | 1010.9 |
| 20260503233052 | 11 | 214 | 17.7 | 24.1 | 0.00 | 0.00 | 0.00 | 57 | 1011.0 |
| 20260503232549 | 11 | 220 | 8.0 | 19.3 | 0.00 | 0.00 | 0.00 | 56 | 1010.7 |
| 20260503232047 | 11 | 230 | 6.4 | 29.0 | 0.00 | 0.00 | 0.00 | 54 | 1010.8 |
| 20260503231545 | 11 | 240 | 9.7 | 24.1 | 0.00 | 0.00 | 0.00 | 53 | 1010.9 |
| 20260503231041 | 12 | 232 | 16.1 | 27.4 | 0.00 | 0.00 | 0.00 | 51 | 1010.6 |
| 20260503230538 | 12 | 223 | 6.4 | 22.5 | 0.00 | 0.00 | 0.00 | 50 | 1010.9 |
| 20260503230035 | 12 | 235 | 8.0 | 29.0 | 0.00 | 0.00 | 0.00 | 48 | 1011.0 |
| 20260503225532 | 13 | 236 | 8.0 | 38.6 | 0.00 | 0.00 | 0.00 | 45 | 1010.7 |
| 20260503225027 | 13 | 273 | 8.0 | 20.9 | 0.00 | 0.00 | 0.00 | 43 | 1010.7 |
| 20260503224525 | 14 | 217 | 17.7 | 30.6 | 0.00 | 0.00 | 0.00 | 38 | 1010.6 |
| 20260503224023 | 14 | 245 | 14.5 | 16.1 | 0.00 | 0.00 | 0.00 | 36 | 1010.6 |
| 20260503223520 | 15 | 238 | 4.8 | 29.0 | 0.00 | 0.00 | 0.00 | 36 | 1010.4 |
| 20260503223015 | 15 | 179 | 4.8 | 12.9 | 0.00 | 0.00 | 0.00 | 36 | 1010.4 |
| 20260503222514 | 15 | 209 | 6.4 | 17.7 | 0.00 | 0.00 | 0.00 | 35 | 1010.6 |
| 20260503222012 | 15 | 182 | 12.9 | 19.3 | 0.00 | 0.00 | 0.00 | 35 | 1010.5 |
| 20260503221510 | 15 | 245 | 14.5 | 17.7 | 0.00 | 0.00 | 0.00 | 36 | 1010.5 |
| 20260503221007 | 15 | 189 | 9.7 | 12.9 | 0.00 | 0.00 | 0.00 | 36 | 1010.5 |
| 20260503220503 | 15 | 176 | 9.7 | 19.3 | 0.00 | 0.00 | 0.00 | 35 | 1010.6 |
| 20260503220000 | 15 | 193 | 11.3 | 27.4 | 0.00 | 0.00 | 0.00 | 34 | 1010.6 |
| 20260503215457 | 15 | 207 | 11.3 | 14.5 | 0.00 | 0.00 | 0.00 | 34 | 1010.6 |
| 20260503214954 | 15 | 210 | 14.5 | 24.1 | 0.00 | 0.00 | 0.00 | 33 | 1010.6 |
| 20260503214452 | 15 | 182 | 9.7 | 24.1 | 0.00 | 0.00 | 0.00 | 34 | 1010.6 |
| 20260503213949 | 15 | 259 | 19.3 | 30.6 | 0.00 | 0.00 | 0.00 | 33 | 1010.6 |
| 20260503213447 | 15 | 225 | 12.9 | 24.1 | 0.00 | 0.00 | 0.00 | 34 | 1010.7 |
| 20260503212943 | 15 | 253 | 8.0 | 17.7 | 0.00 | 0.00 | 0.00 | 34 | 1010.6 |
| 20260503212441 | 15 | 188 | 8.0 | 17.7 | 0.00 | 0.00 | 0.00 | 35 | 1010.8 |
| 20260503211938 | 15 | 186 | 11.3 | 17.7 | 0.00 | 0.00 | 0.00 | 35 | 1010.7 |
| 20260503211435 | 15 | 222 | 9.7 | 19.3 | 0.00 | 0.00 | 0.00 | 34 | 1010.7 |
| 20260503210930 | 15 | 212 | 11.3 | 24.1 | 0.00 | 0.00 | 0.00 | 36 | 1010.9 |
| 20260503210427 | 15 | 239 | 9.7 | 17.7 | 0.00 | 0.00 | 0.00 | 35 | 1010.8 |
| 20260503205922 | 16 | 216 | 16.1 | 27.4 | 0.00 | 0.00 | 0.00 | 33 | 1010.9 |
| 20260503205420 | 15 | 223 | 9.7 | 19.3 | 0.00 | 0.00 | 0.00 | 34 | 1010.9 |
| 20260503204915 | 16 | 252 | 3.2 | 14.5 | 0.00 | 0.00 | 0.00 | 36 | 1011.2 |
| 20260503204413 | 16 | 168 | 16.1 | 17.7 | 0.00 | 0.00 | 0.00 | 35 | 1011.0 |
| 20260503203910 | 15 | 203 | 6.4 | 14.5 | 0.00 | 0.00 | 0.00 | 33 | 1011.1 |
| 20260503203408 | 16 | 196 | 11.3 | 22.5 | 0.00 | 0.00 | 0.00 | 33 | 1011.3 |
| 20260503202904 | 15 | 223 | 6.4 | 25.7 | 0.00 | 0.00 | 0.00 | 35 | 1011.4 |
| 20260503202403 | 15 | 257 | 9.7 | 19.3 | 0.00 | 0.00 | 0.00 | 33 | 1011.3 |
| 20260503201900 | 16 | 245 | 19.3 | 19.3 | 0.00 | 0.00 | 0.00 | 32 | 1011.3 |
| 20260503201357 | 16 | 197 | 8.0 | 19.3 | 0.00 | 0.00 | 0.00 | 32 | 1011.4 |
| 20260503200855 | 15 | 187 | 11.3 | 17.7 | 0.00 | 0.00 | 0.00 | 33 | 1011.3 |
| 20260503200350 | 15 | 220 | 6.4 | 22.5 | 0.00 | 0.00 | 0.00 | 34 | 1011.4 |
| 20260503195848 | 16 | 233 | 9.7 | 24.1 | 0.00 | 0.00 | 0.00 | 33 | 1011.7 |
| 20260503195344 | 16 | 219 | 14.5 | 22.5 | 0.00 | 0.00 | 0.00 | 32 | 1011.7 |
| 20260503194842 | 15 | 231 | 9.7 | 24.1 | 0.00 | 0.00 | 0.00 | 33 | 1011.6 |
| 20260503194337 | 16 | 183 | 8.0 | 19.3 | 0.00 | 0.00 | 0.00 | 34 | 1011.6 |
| 20260503193834 | 16 | 272 | 9.7 | 20.9 | 0.00 | 0.00 | 0.00 | 32 | 1011.8 |
| 20260503193330 | 16 | 245 | 4.8 | 19.3 | 0.00 | 0.00 | 0.00 | 35 | 1011.9 |
| 20260503192826 | 16 | 230 | 6.4 | 14.5 | 0.00 | 0.00 | 0.00 | 34 | 1011.9 |
| 20260503192321 | 16 | 240 | 8.0 | 20.9 | 0.00 | 0.00 | 0.00 | 35 | 1012.1 |
| 20260503191818 | 15 | 190 | 6.4 | 19.3 | 0.00 | 0.00 | 0.00 | 33 | 1012.2 |
| 20260503191315 | 16 | 215 | 11.3 | 25.7 | 0.00 | 0.00 | 0.00 | 32 | 1012.1 |
| 20260503190812 | 15 | 244 | 6.4 | 17.7 | 0.00 | 0.00 | 0.00 | 38 | 1012.4 |
| 20260503190309 | 15 | 205 | 6.4 | 14.5 | 0.00 | 0.00 | 0.00 | 35 | 1012.4 |
| 20260503185806 | 15 | 184 | 12.9 | 19.3 | 0.00 | 0.00 | 0.00 | 34 | 1012.4 |
| 20260503185302 | 15 | 190 | 8.0 | 19.3 | 0.00 | 0.00 | 0.00 | 34 | 1012.5 |
| 20260503184801 | 15 | 211 | 8.0 | 9.7 | 0.00 | 0.00 | 0.00 | 37 | 1012.6 |
| 20260503184258 | 15 | 272 | 6.4 | 19.3 | 0.00 | 0.00 | 0.00 | 34 | 1012.8 |
| 20260503183754 | 15 | 185 | 12.9 | 22.5 | 0.00 | 0.00 | 0.00 | 36 | 1012.8 |
| 20260503183252 | 15 | 223 | 3.2 | 12.9 | 0.00 | 0.00 | 0.00 | 36 | 1012.8 |
| 20260503182749 | 15 | 214 | 9.7 | 12.9 | 0.00 | 0.00 | 0.00 | 37 | 1012.9 |
| 20260503182248 | 15 | 214 | 11.3 | 20.9 | 0.00 | 0.00 | 0.00 | 34 | 1013.0 |
| 20260503181744 | 15 | 192 | 6.4 | 14.5 | 0.00 | 0.00 | 0.00 | 35 | 1012.9 |
| 20260503181241 | 15 | 304 | 8.0 | 17.7 | 0.00 | 0.00 | 0.00 | 35 | 1013.2 |
| 20260503180738 | 15 | 232 | 14.5 | 17.7 | 0.00 | 0.00 | 0.00 | 34 | 1013.1 |
| 20260503180236 | 15 | 236 | 6.4 | 16.1 | 0.00 | 0.00 | 0.00 | 35 | 1013.3 |
| 20260503175732 | 15 | 224 | 11.3 | 20.9 | 0.00 | 0.00 | 0.00 | 33 | 1013.2 |
| 20260503175230 | 15 | 226 | 6.4 | 14.5 | 0.00 | 0.00 | 0.00 | 35 | 1013.3 |
| 20260503174726 | 15 | 149 | 4.8 | 11.3 | 0.00 | 0.00 | 0.00 | 37 | 1013.6 |
| 20260503174225 | 15 | 184 | 12.9 | 29.0 | 0.00 | 0.00 | 0.00 | 34 | 1013.4 |
| 20260503173725 | 15 | 239 | 9.7 | 17.7 | 0.00 | 0.00 | 0.00 | 33 | 1013.5 |
| 20260503173221 | 15 | 264 | 11.3 | 14.5 | 0.00 | 0.00 | 0.00 | 36 | 1013.5 |
| 20260503172718 | 15 | 233 | 4.8 | 20.9 | 0.00 | 0.00 | 0.00 | 35 | 1013.7 |
| 20260503172215 | 14 | 208 | 6.4 | 20.9 | 0.00 | 0.00 | 0.00 | 34 | 1013.7 |
| 20260503171711 | 15 | 217 | 4.8 | 19.3 | 0.00 | 0.00 | 0.00 | 34 | 1013.8 |
| 20260503171209 | 15 | 199 | 9.7 | 14.5 | 0.00 | 0.00 | 0.00 | 34 | 1013.9 |
| 20260503170705 | 15 | 223 | 14.5 | 20.9 | 0.00 | 0.00 | 0.00 | 34 | 1014.0 |
| 20260503170202 | 15 | 193 | 12.9 | 17.7 | 0.00 | 0.00 | 0.00 | 34 | 1013.8 |
| 20260503160124 | 14 | 284 | 6.4 | 14.5 | 0.00 | 0.00 | 0.00 | 38 | 1014.5 |
| 20260503150554 | 12 | 220 | 6.4 | 14.5 | 0.00 | 0.00 | 0.00 | 40 | 1014.7 |
| 20260503130943 | 8 | 170 | 4.8 | 9.7 | 0.00 | 0.00 | 0.00 | 52 | 1015.2 |
| 20260503130441 | 8 | 203 | 8.0 | 8.0 | 0.00 | 0.00 | 0.00 | 55 | 1015.5 |
| 20260503110338 | 0 | 134 | 4.8 | 4.8 | 0.00 | 0.00 | 0.00 | 93 | 1014.6 |
| 20260503090229 | 0 | 143 | 3.2 | 4.8 | 0.00 | 0.00 | 0.00 | 90 | 1014.0 |
| 20260503081202 | 0 | 126 | 3.2 | 3.2 | 0.00 | 0.00 | 0.00 | 88 | 1014.2 |
| 20260503080657 | 0 | 146 | 3.2 | 4.8 | 0.00 | 0.00 | 0.00 | 88 | 1014.0 |
| 20260503080155 | 0 | 136 | 3.2 | 4.8 | 0.00 | 0.00 | 0.00 | 87 | 1014.0 |
| 20260503072631 | 0 | 145 | 3.2 | 3.2 | 0.00 | 0.00 | 0.00 | 89 | 1014.1 |
| 20260503072128 | 0 | 115 | 3.2 | 3.2 | 0.00 | 0.00 | 0.00 | 90 | 1014.1 |
| 20260503071625 | 0 | 139 | 3.2 | 3.2 | 0.00 | 0.00 | 0.00 | 91 | 1013.9 |
| 20260503071122 | 0 | 136 | 3.2 | 4.8 | 0.00 | 0.00 | 0.00 | 91 | 1014.2 |
| 20260503070619 | 0 | 133 | 3.2 | 3.2 | 0.00 | 0.00 | 0.00 | 91 | 1014.0 |
| 20260503070117 | 0 | 139 | 3.2 | 4.8 | 0.00 | 0.00 | 0.00 | 91 | 1014.1 |
| 20260503055037 | 0 | 122 | 3.2 | 4.8 | 0.00 | 0.00 | 0.00 | 89 | 1014.4 |
| 20260503054533 | 0 | 128 | 3.2 | 4.8 | 0.00 | 0.00 | 0.00 | 88 | 1014.3 |
| 20260503054031 | 1 | 130 | 4.8 | 4.8 | 0.00 | 0.00 | 0.00 | 89 | 1014.3 |
| 20260503053529 | 1 | 139 | 3.2 | 3.2 | 0.00 | 0.00 | 0.00 | 89 | 1014.3 |
| 20260503053026 | 1 | 140 | 3.2 | 3.2 | 0.00 | 0.00 | 0.00 | 89 | 1014.3 |
| 20260503052523 | 1 | 142 | 3.2 | 3.2 | 0.00 | 0.00 | 0.00 | 89 | 1014.5 |
| 20260503052019 | 1 | 141 | 3.2 | 4.8 | 0.00 | 0.00 | 0.00 | 88 | 1014.4 |
| 20260503051515 | 1 | 140 | 3.2 | 3.2 | 0.00 | 0.00 | 0.00 | 88 | 1014.3 |
| 20260503051013 | 1 | 141 | 3.2 | 4.8 | 0.00 | 0.00 | 0.00 | 88 | 1014.5 |
| 20260503050508 | 1 | 135 | 3.2 | 4.8 | 0.00 | 0.00 | 0.00 | 87 | 1014.4 |
| 20260503050006 | 1 | 135 | 3.2 | 3.2 | 0.00 | 0.00 | 0.00 | 87 | 1014.6 |
| 20260503045503 | 1 | 144 | 3.2 | 3.2 | 0.00 | 0.00 | 0.00 | 86 | 1014.3 |
| 20260503045000 | 1 | 135 | 4.8 | 4.8 | 0.00 | 0.00 | 0.00 | 86 | 1014.4 |
| 20260503044456 | 2 | 144 | 3.2 | 4.8 | 0.00 | 0.00 | 0.00 | 85 | 1014.4 |
| 20260503043954 | 2 | 128 | 3.2 | 3.2 | 0.00 | 0.00 | 0.00 | 84 | 1014.4 |
| 20260503043450 | 2 | 147 | 3.2 | 3.2 | 0.00 | 0.00 | 0.00 | 84 | 1014.3 |
| 20260503042947 | 2 | 151 | 3.2 | 4.8 | 0.00 | 0.00 | 0.00 | 84 | 1014.2 |
| 20260503042443 | 2 | 141 | 3.2 | 3.2 | 0.00 | 0.00 | 0.00 | 83 | 1014.4 |
| 20260503041940 | 2 | 122 | 3.2 | 4.8 | 0.00 | 0.00 | 0.00 | 83 | 1014.3 |
| 20260503041437 | 2 | 150 | 3.2 | 4.8 | 0.00 | 0.00 | 0.00 | 83 | 1014.3 |
| 20260503040934 | 2 | 137 | 3.2 | 4.8 | 0.00 | 0.00 | 0.00 | 81 | 1014.3 |
| 20260503040431 | 3 | 128 | 3.2 | 4.8 | 0.00 | 0.00 | 0.00 | 81 | 1014.4 |
| 20260503035929 | 3 | 146 | 3.2 | 4.8 | 0.00 | 0.00 | 0.00 | 81 | 1014.5 |
| 20260503035425 | 3 | 143 | 3.2 | 4.8 | 0.00 | 0.00 | 0.00 | 80 | 1014.3 |
| 20260503034923 | 3 | 148 | 3.2 | 4.8 | 0.00 | 0.00 | 0.00 | 81 | 1014.4 |
| 20260503034421 | 3 | 140 | 4.8 | 4.8 | 0.00 | 0.00 | 0.00 | 80 | 1014.5 |
| 20260503033917 | 3 | 133 | 3.2 | 4.8 | 0.00 | 0.00 | 0.00 | 80 | 1014.5 |
| 20260503033415 | 3 | 144 | 3.2 | 4.8 | 0.00 | 0.00 | 0.00 | 80 | 1014.4 |
| 20260503032913 | 3 | 142 | 3.2 | 4.8 | 0.00 | 0.00 | 0.00 | 82 | 1014.5 |
| 20260503032411 | 3 | 136 | 3.2 | 4.8 | 0.00 | 0.00 | 0.00 | 84 | 1014.5 |
| 20260503031908 | 3 | 127 | 3.2 | 3.2 | 0.00 | 0.00 | 0.00 | 85 | 1014.5 |
| 20260503031406 | 2 | 142 | 3.2 | 4.8 | 0.00 | 0.00 | 0.00 | 84 | 1014.6 |
| 20260503030902 | 2 | 128 | 3.2 | 4.8 | 0.00 | 0.00 | 0.00 | 83 | 1014.6 |
| 20260503030359 | 2 | 143 | 3.2 | 4.8 | 0.00 | 0.00 | 0.00 | 83 | 1014.6 |
| 20260503025855 | 3 | 136 | 3.2 | 4.8 | 0.00 | 0.00 | 0.00 | 84 | 1014.6 |
| 20260503025353 | 2 | 128 | 3.2 | 3.2 | 0.00 | 0.00 | 0.00 | 83 | 1014.7 |
| 20260503024850 | 2 | 127 | 3.2 | 4.8 | 0.00 | 0.00 | 0.00 | 80 | 1014.7 |
| 20260503024346 | 2 | 134 | 4.8 | 4.8 | 0.00 | 0.00 | 0.00 | 79 | 1014.6 |
| 20260503023843 | 2 | 136 | 3.2 | 4.8 | 0.00 | 0.00 | 0.00 | 78 | 1014.7 |
| 20260503023341 | 3 | 138 | 3.2 | 4.8 | 0.00 | 0.00 | 0.00 | 78 | 1014.8 |